Theta_e
322 322 322 328 328 326 327 326 324 328 345 337 354 356 359 360 366 370 362 358 361 358 358 349 340 338 338 341 343 344 342 338 327 327 333 331 331 330 336 338 339 338 336 338 338 339 339 341 343
322 323 324 327 327 330 328 326 326 329 332 332 348 355 358 360 356 359 362 363 362 360 358 354 340 338 338 341 343 343 342 337 326 327 332 331 332 331 337 342 342 339 338 339 339 339 339 341 343
321 321 327 326 326 330 327 326 326 327 331 330 348 348 351 354 355 361 365 363 363 361 357 358 341 337 337 339 342 342 341 334 325 326 332 331 332 332 334 339 342 342 340 339 339 338 340 340 342
320 323 324 326 324 323 324 324 325 329 334 335 343 348 350 348 355 362 364 363 362 360 358 352 343 339 335 335 339 341 340 334 327 327 331 332 331 333 333 336 340 340 337 337 337 337 340 339 338
319 323 324 325 323 321 321 323 326 330 335 339 340 344 339 341 345 354 363 363 360 357 357 356 345 341 337 334 333 338 340 337 332 330 331 332 331 333 334 336 338 339 333 329 331 335 338 339 337
321 322 323 324 321 320 322 322 325 329 332 336 339 336 329 325 337 343 354 362 360 358 357 359 349 344 340 336 333 333 336 340 339 338 340 339 333 332 334 337 338 338 330 327 327 330 331 330 330
320 321 322 322 322 322 321 321 323 325 326 324 328 328 325 322 332 337 343 352 358 360 359 359 358 353 344 340 335 331 330 334 338 340 341 340 338 334 335 338 339 338 332 328 327 329 330 329 329
319 321 321 321 322 322 321 321 321 322 322 322 322 324 324 321 327 333 335 341 344 351 353 360 360 358 357 355 343 336 331 331 334 338 340 340 340 337 336 337 339 338 335 335 335 334 333 331 329
318 320 321 321 321 322 321 321 321 320 321 321 321 321 320 320 321 323 329 334 337 341 345 349 352 357 358 356 356 347 338 334 333 336 338 342 345 347 346 342 344 339 339 339 337 336 336 332 326
321 321 321 320 321 321 321 321 320 320 321 321 321 320 320 321 321 322 322 322 326 333 338 344 349 354 356 356 356 356 353 349 347 345 346 343 341 342 342 343 344 343 340 341 339 337 336 331 334
321 321 320 320 320 320 320 319 319 320 321 320 319 320 320 320 321 321 320 320 320 321 321 333 342 354 356 352 353 354 355 354 351 349 348 346 341 342 342 342 345 345 342 343 342 343 341 338 337
321 320 320 320 320 320 320 318 318 319 320 318 319 319 319 320 321 321 321 320 320 320 320 321 323 340 349 349 351 352 352 354 354 352 351 349 346 344 342 339 339 341 339 340 340 340 341 342 340
320 320 319 319 319 319 319 318 318 318 318 318 318 319 319 320 319 319 320 321 321 322 321 322 322 323 335 351 352 351 350 352 354 354 352 350 348 345 344 341 340 339 339 339 340 340 342 343 339
319 319 319 319 319 319 318 318 318 319 318 319 319 319 320 320 319 319 320 321 323 324 325 324 324 324 325 342 352 351 348 349 354 354 354 352 349 347 345 344 343 341 340 339 339 340 342 342 338
319 319 319 319 319 318 318 319 318 319 318 318 319 319 319 319 319 321 322 323 324 325 326 327 326 324 325 329 339 346 344 347 351 351 355 354 352 351 348 346 345 344 342 341 340 341 342 341 339
318 319 319 320 319 318 318 317 319 319 318 318 319 319 319 320 322 323 323 324 326 326 328 329 329 329 326 326 333 339 340 346 347 347 349 355 353 351 351 347 345 345 344 342 341 341 341 340 338
320 319 319 318 319 318 318 318 318 318 318 318 318 318 318 321 322 324 324 324 324 324 324 325 327 329 330 327 328 335 339 343 345 344 346 350 353 352 350 350 347 347 344 343 342 341 341 340 339
320 319 319 319 319 319 318 318 317 317 317 317 317 317 318 321 323 324 323 322 321 320 319 319 320 323 329 327 326 331 335 343 348 346 344 349 353 353 351 350 348 347 346 344 343 342 342 341 340
320 320 320 320 320 318 319 318 318 317 316 316 316 318 320 321 323 323 322 321 321 320 319 319 319 319 320 327 326 328 333 339 345 349 349 348 350 352 351 351 351 347 346 345 344 345 344 343 342
320 321 321 320 319 319 319 319 318 316 316 316 317 318 321 322 323 323 321 320 319 319 318 318 318 318 318 318 328 327 335 336 336 341 345 347 348 350 350 349 351 350 347 344 344 346 344 344 343
321 321 321 320 319 319 319 317 316 316 316 317 318 320 321 322 323 322 321 320 319 319 317 317 317 317 317 318 317 327 329 339 340 340 342 345 348 351 351 350 350 351 349 346 345 345 344 344 344
321 319 318 319 320 319 317 317 315 316 316 317 317 320 322 322 322 321 321 320 319 317 316 316 317 318 317 317 317 321 329 332 335 338 337 341 347 348 350 352 350 350 350 348 347 346 341 340 345
320 318 318 318 319 318 317 318 318 317 317 317 318 320 321 322 322 321 321 319 318 317 316 316 316 317 317 317 317 318 319 325 331 334 338 341 343 347 347 349 349 349 351 347 348 348 347 344 339
318 318 319 319 318 319 317 318 316 316 317 316 319 320 321 321 321 321 319 318 317 317 317 316 316 316 316 316 316 317 319 321 326 332 336 338 339 341 347 347 349 349 351 347 347 350 349 348 344
318 321 326 319 322 322 318 318 318 317 316 317 317 318 319 320 320 320 319 318 317 317 317 316 316 314 314 314 315 316 317 320 323 330 333 336 337 337 341 347 347 349 347 347 347 346 349 349 347
318 320 321 325 320 317 317 317 319 318 318 319 318 319 319 318 318 319 318 317 317 317 316 316 314 313 313 313 314 316 317 318 319 324 331 335 335 337 340 346 345 347 347 349 347 345 344 345 347
320 320 320 324 321 321 319 317 318 318 317 317 318 319 319 318 319 318 318 317 317 316 315 314 313 312 313 313 313 315 316 317 318 321 329 333 337 336 339 343 345 346 346 346 343 341 343 343 345
319 318 322 324 326 321 316 317 316 318 317 317 317 317 318 318 318 318 318 317 316 315 313 312 312 312 312 312 313 314 315 315 317 320 326 333 337 338 337 341 344 345 343 340 343 341 343 344 342
318 320 319 320 321 325 322 318 317 318 318 318 318 318 318 318 318 318 317 316 315 313 311 311 311 311 312 312 312 313 314 315 316 318 323 331 337 339 339 339 341 341 340 341 341 342 340 343 341
317 318 318 329 322 320 325 326 318 318 319 320 319 320 318 318 318 317 316 315 313 311 310 310 311 311 311 311 311 312 314 314 315 318 322 331 336 339 339 339 339 340 340 341 341 341 339 341 338
Wind_Speed
4 3 4 7 6 6 5 5 3 6 4 8 4 6 14 14 10 5 5 7 3 13 14 16 15 14 12 13 18 23 22 21 22 28 28 27 26 25 25 23 20 19 18 18 18 17 15 14 12
2 3 4 4 7 8 7 5 7 6 5 6 2 3 9 15 11 11 5 4 6 13 14 13 15 14 13 12 16 23 22 20 23 27 28 27 25 25 24 21 18 18 18 16 15 16 14 12 10
4 3 4 3 5 5 5 8 9 3 3 2 4 9 6 7 14 7 9 6 10 14 13 13 16 14 13 13 15 19 20 20 23 25 26 26 24 23 23 21 17 15 16 15 14 14 14 12 10
2 7 5 2 5 7 7 9 8 2 4 3 3 9 11 12 7 8 7 6 8 12 12 13 16 15 14 14 14 17 18 19 21 23 24 23 22 22 22 20 17 14 13 14 14 13 13 11 9
3 5 5 8 2 4 6 9 7 8 2 4 2 13 14 13 12 10 9 7 8 9 9 9 13 12 12 13 15 16 18 18 20 21 21 21 21 21 21 19 17 14 13 13 13 13 12 10 8
5 4 7 11 10 3 7 7 7 8 9 7 11 12 10 11 11 10 10 9 8 8 8 7 10 11 11 12 13 15 17 18 19 21 20 19 19 20 20 19 17 15 14 13 12 12 11 9 8
2 5 1 8 10 9 6 5 8 5 9 10 1 7 7 13 11 8 6 7 6 6 6 7 7 8 10 11 12 13 15 17 19 20 20 20 19 20 20 19 17 15 14 13 12 11 10 9 8
2 1 8 3 8 5 5 2 5 10 9 4 5 3 7 10 9 6 5 3 4 4 2 3 5 6 7 8 11 12 13 15 18 19 20 20 20 20 21 20 18 16 15 14 12 11 10 9 9
3 4 6 4 5 5 4 4 7 2 4 8 6 7 5 7 6 8 4 1 1 0 3 3 4 6 8 9 10 13 15 15 16 17 19 19 16 17 18 19 18 17 16 15 13 11 11 10 9
3 2 5 4 5 3 3 5 4 1 3 6 7 10 9 7 5 4 5 6 6 4 4 4 5 6 7 9 11 10 13 13 14 15 15 17 17 17 19 19 22 19 18 16 14 12 12 11 9
6 6 5 5 3 4 4 5 3 3 3 5 6 7 7 6 7 7 6 7 7 6 6 8 6 8 10 9 10 12 13 14 16 17 17 17 17 17 19 18 18 18 19 15 15 13 12 13 11
8 4 2 3 1 2 4 2 2 3 5 3 3 4 5 6 7 9 11 11 11 11 9 8 8 10 12 13 12 13 14 15 16 18 19 18 19 18 18 20 18 19 20 19 18 16 14 12 11
4 4 3 4 3 1 3 1 5 6 1 1 2 5 6 7 8 8 9 12 14 14 15 12 10 10 13 15 16 15 16 16 17 17 19 20 20 19 19 19 19 19 19 19 19 17 14 13 12
2 1 3 3 4 2 6 4 6 4 2 6 6 8 8 8 9 10 11 13 15 17 17 17 15 13 12 16 18 18 18 18 17 18 19 21 21 20 19 20 20 20 19 19 19 18 16 14 12
1 8 6 3 2 2 5 12 12 2 5 8 9 10 9 10 10 10 10 11 13 15 18 17 18 17 14 15 19 20 21 20 20 20 19 21 23 21 21 20 20 19 19 19 19 17 16 14 13
3 5 5 5 3 6 6 13 4 3 7 10 13 12 8 10 8 7 8 9 10 12 14 16 16 17 18 18 19 20 22 22 22 21 21 20 23 23 21 22 20 18 18 18 20 19 18 16 15
2 6 6 6 1 6 7 12 11 10 11 15 15 14 7 7 4 3 5 6 9 10 13 16 17 17 16 16 18 21 22 23 24 23 22 21 22 22 24 22 21 18 18 19 20 19 18 17 16
8 10 8 10 6 10 15 16 14 15 15 17 16 15 6 7 1 2 4 6 8 11 13 15 19 21 19 12 15 19 22 22 24 26 24 23 23 23 25 21 22 20 20 20 20 19 19 18 16
9 11 12 11 12 11 15 17 18 18 18 14 10 4 5 6 3 4 3 5 6 9 12 16 19 22 23 19 14 17 21 23 24 27 27 26 24 23 27 22 20 23 24 22 21 20 19 18 17
11 13 13 12 6 13 18 22 19 14 12 8 6 5 7 6 6 3 1 3 6 9 11 15 17 20 20 21 18 15 18 19 24 25 27 26 25 23 26 28 22 23 24 27 22 23 23 23 21
14 11 13 14 16 18 19 20 9 6 7 7 6 4 5 6 5 4 1 2 5 8 11 13 16 19 19 21 20 17 13 19 21 22 26 26 27 26 27 27 23 22 24 25 30 29 20 21 23
14 8 8 13 16 15 15 12 15 6 8 10 9 7 8 8 7 5 4 2 5 9 10 12 15 17 19 20 20 18 14 16 21 21 24 24 23 26 26 25 24 24 22 23 24 25 28 26 16
12 6 14 16 17 18 18 8 3 5 11 11 6 9 9 8 7 6 4 3 5 8 12 14 16 18 19 19 19 18 17 16 16 22 24 22 23 24 27 27 26 25 25 21 21 20 23 23 28
8 14 16 11 9 10 4 7 11 6 6 7 7 7 7 7 8 8 7 8 10 13 14 16 19 20 20 21 20 19 19 18 18 17 22 24 24 25 26 28 27 26 23 21 20 21 20 21 26
6 11 6 5 6 11 3 8 15 15 11 11 10 8 8 8 10 10 10 11 14 16 17 19 21 24 23 22 21 19 20 19 19 19 18 22 25 25 24 26 27 25 26 21 18 18 21 22 26
13 8 5 6 9 16 18 11 4 4 4 6 7 7 6 9 10 9 11 14 17 17 18 19 22 25 25 24 26 22 21 20 20 20 20 20 23 26 22 24 26 26 23 22 21 19 20 21 23
2 7 6 8 16 14 12 13 13 15 12 10 13 9 12 13 7 13 14 14 15 18 20 21 22 24 24 26 25 23 23 22 23 23 22 22 21 24 23 24 27 28 29 27 24 22 22 23 23
10 5 5 4 5 13 13 21 16 6 3 7 11 11 14 9 11 14 13 15 16 19 22 22 22 24 24 24 24 23 24 24 24 23 23 22 22 21 24 25 26 28 27 25 23 22 22 21 26
7 10 10 9 11 15 18 11 14 15 17 17 10 10 17 16 13 15 15 19 22 22 24 24 24 24 24 22 23 24 25 25 24 24 24 23 22 22 24 26 27 28 26 24 23 22 21 24 23
11 14 16 10 18 18 16 22 18 19 16 26 17 17 17 15 15 16 19 22 23 23 25 25 24 23 23 23 25 25 26 25 24 23 23 23 23 23 24 26 28 26 24 22 24 24 22 23 23
Wind_Direction
335 263 222 236 241 241 117 65 335 347 133 30 47 21 66 39 19 54 68 138 138 160 161 161 169 171 175 183 186 187 183 182 179 177 176 175 169 166 162 161 159 156 156 156 153 152 150 146 144
281 209 237 259 260 205 111 18 12 8 360 341 91 139 72 70 44 88 106 76 129 155 156 158 166 171 174 181 184 186 185 185 183 181 180 179 175 171 169 166 162 162 162 164 161 159 159 154 152
218 213 267 301 279 341 92 25 10 16 10 326 120 42 38 29 47 55 47 80 128 150 155 164 166 173 178 176 185 188 188 187 186 185 185 184 181 178 177 176 172 173 172 173 173 170 167 164 162
253 200 178 254 83 53 49 30 357 105 105 49 62 80 82 50 51 46 58 84 134 148 155 171 170 174 180 180 182 189 192 192 190 189 192 190 187 185 185 185 184 183 186 182 182 181 178 177 177
234 255 198 162 188 103 59 26 10 67 50 102 159 98 83 52 75 62 68 85 131 142 149 160 174 179 183 189 189 190 197 198 196 199 200 198 195 193 192 192 191 193 193 189 186 188 191 192 199
208 277 209 166 143 128 69 25 27 57 80 58 97 101 76 61 53 61 65 76 107 132 150 165 188 192 193 195 200 201 201 203 206 207 208 207 205 202 200 197 195 195 194 195 194 197 201 202 212
266 241 218 135 142 111 43 16 35 40 44 47 121 101 91 53 35 41 71 83 96 121 150 169 185 199 207 207 208 211 212 212 212 213 213 215 213 211 207 204 201 198 196 197 202 204 208 209 219
319 255 169 171 184 95 47 50 15 23 52 92 350 63 72 27 19 23 45 68 98 119 137 186 198 205 207 219 228 219 219 219 218 219 220 221 218 217 214 210 208 202 198 198 202 210 217 219 227
256 217 140 117 191 101 53 351 51 48 50 59 62 42 17 8 23 15 4 252 14 306 220 232 225 221 219 219 230 236 227 223 222 223 222 220 215 217 214 211 219 210 203 201 205 213 223 230 234
330 112 77 64 74 23 353 332 2 297 103 91 81 73 66 62 42 51 22 346 337 324 299 268 261 255 241 230 223 222 223 223 221 219 217 210 213 213 210 214 217 219 212 213 214 217 224 228 232
23 85 120 112 37 338 329 273 325 267 153 65 52 37 35 40 57 22 12 19 1 348 309 296 275 270 260 246 240 232 229 227 226 220 216 215 214 214 209 211 219 219 224 221 223 224 222 227 228
112 81 30 67 94 270 262 23 214 287 69 53 19 3 337 353 6 12 359 355 352 343 336 334 297 274 263 255 247 244 240 233 227 224 219 215 214 214 214 214 217 217 219 222 224 224 224 221 225
54 84 99 104 118 187 183 107 316 208 86 275 288 254 322 333 333 344 336 337 337 330 326 321 312 297 267 252 249 246 246 240 237 230 223 218 217 217 218 218 218 217 220 219 222 224 217 220 222
47 81 138 98 62 143 250 274 239 211 232 265 269 302 310 317 323 317 326 325 327 324 318 313 305 297 284 253 245 246 246 244 240 235 231 224 222 223 221 222 219 220 219 221 221 220 218 221 222
196 239 186 163 356 138 301 253 228 93 274 267 265 281 288 299 305 323 330 327 328 324 323 321 309 297 283 263 250 247 244 240 240 237 231 224 222 224 225 226 224 220 222 220 219 220 218 221 221
277 246 291 88 304 124 289 279 233 88 260 272 278 275 277 286 309 335 341 340 344 342 343 338 329 307 288 272 256 248 244 238 237 238 234 229 224 222 224 227 226 222 219 219 217 216 219 222 222
145 331 312 316 130 307 276 302 285 287 280 280 278 275 274 276 275 351 17 18 21 19 11 1 355 343 315 277 260 252 247 241 237 236 234 228 226 218 221 227 228 222 219 219 218 217 219 218 224
326 316 308 302 342 314 290 282 293 292 280 278 281 279 266 245 85 90 64 55 51 43 34 24 14 4 352 313 272 252 247 242 237 236 233 229 226 220 220 223 224 219 217 220 217 217 215 221 216
308 297 291 297 327 295 294 293 290 295 295 288 284 278 216 244 160 119 79 49 39 30 21 17 11 9 7 354 315 262 246 242 239 235 234 228 226 224 220 217 222 218 212 224 218 214 214 212 214
294 289 287 309 277 309 300 295 291 281 279 301 286 244 220 211 194 159 95 39 26 15 12 8 4 1 2 360 345 291 276 255 246 242 235 232 227 224 220 221 221 221 220 216 220 223 214 212 202
288 286 297 310 310 287 291 286 275 219 263 248 224 271 241 235 217 197 199 22 357 359 359 1 359 357 356 352 350 348 280 265 260 249 235 230 228 221 217 220 219 222 217 219 217 214 228 217 207
293 13 302 287 294 295 318 291 285 213 247 226 260 239 220 208 206 217 241 318 346 350 347 347 348 350 349 352 346 340 324 285 272 259 249 234 233 228 225 223 222 218 219 223 224 221 210 224 242
305 323 295 291 288 288 274 238 113 184 260 251 263 221 228 227 233 243 254 300 320 331 334 334 334 339 338 340 340 329 318 316 299 268 263 248 241 233 229 226 226 222 215 219 221 222 218 214 213
317 285 285 282 269 259 277 239 285 292 295 266 227 237 231 244 237 250 260 280 307 320 325 327 329 331 331 329 329 321 311 304 302 293 271 251 245 236 229 226 223 223 223 218 217 222 224 222 221
262 303 308 277 219 274 107 262 260 286 275 264 261 266 252 259 261 257 274 295 309 313 321 322 325 323 325 321 313 313 309 299 292 285 277 259 247 240 227 219 218 217 223 223 222 220 223 224 222
290 293 262 289 302 304 303 268 357 352 296 269 258 261 260 289 286 293 291 289 303 308 311 314 316 315 316 316 314 315 309 302 290 284 282 273 252 242 232 221 215 212 213 217 223 226 229 228 225
88 249 358 299 277 270 267 262 216 234 262 265 261 254 273 285 315 307 309 300 300 305 306 310 310 308 309 311 310 310 304 298 288 286 280 274 261 248 236 225 218 214 210 208 208 218 226 226 223
252 344 247 210 276 287 285 310 298 310 283 267 299 293 327 307 293 304 306 303 299 303 304 306 306 304 303 303 301 300 298 292 287 286 280 275 263 247 236 227 221 213 206 202 202 210 221 223 221
235 226 224 287 275 272 288 280 341 326 302 294 284 341 310 311 324 311 307 303 306 308 307 309 306 304 301 300 297 293 292 291 285 285 282 273 262 245 232 225 220 213 208 202 203 203 213 215 213
290 280 285 263 275 269 268 273 295 305 2 333 331 330 310 321 309 307 305 305 307 308 309 308 306 304 300 301 297 289 289 291 284 283 283 272 262 247 231 221 214 212 210 208 210 204 204 205 195